Location: Chomutov
(50.4500°N, 13.4333°E)
Time: 01:55:17
(UTC+02:00)

FO-29 - Pass Details

Date: 30 September 2021
Orbit: 800 x 1321 km, 98.6° (Epoch: 27 October)

Event Time Altitude Azimuth Distance (km) Brightness Sun altitude
Exits shadow 20:04:17 16° 109° (ESE) 2,861 11.3 -13.2°
Maximum altitude 20:09:25 34° 57° (ENE) 2,058 10.8 -14.0°
Drops below altitude 10° 20:16:09 10° 357° (N) 3,330 12.5 -15.0°
Sets 20:19:06 0° 349° (N) 4,268 13.2 -15.5°
